Voltar ao catálogo

CHINASAT 18

AtivoComunicaçõesHEO
NORAD 44493·PAYLOAD·🇨🇳 China

Lançado Aug 19, 2019 de Xichang Satellite Launch Center

Loading…

Próximas Passagens (próximas 24 horas)

TLE

AtualizadoSource: Space-Track

Época: Sep 13, 2026, 07:00 UTC

1 44493U 19053A   26256.29198545  .00030858  88419-6  32851-3 0  9998
2 44493  28.4608 318.4677 6222103  78.1233 341.3788  3.81061739 73215

Acompanhe CHINASAT 18 em tempo real com AllMySat

Download on the App Store